Regional Weather Roundup
Issued by NWS Upton, NY

Home | Current Version | Previous Version | Text Only | Print | Product List | Glossary On
Versions: 1 2 3 4 5 6 7 8 9 10 11 12 13 14 15 16 17 18 19 20 21 22 23 24 25 26 27 28 29 30 31 32 33 34 35 36 37 38 39 40 41 42 43 44 45 46 47 48 49 50
000
ASUS41 KOKX 260605
RWROKX

REGIONAL WEATHER ROUNDUP
NATIONAL WEATHER SERVICE NEW YORK NY
100 AM EST FRI DEC 26 2014

NOTE: "FAIR" INDICATES FEW OR NO CLOUDS BELOW 12,000 FEET WITH NO
SIGNIFICANT WEATHER AND/OR OBSTRUCTIONS TO VISIBILITY.

NYZ071-072-176-178-NJZ106-104-260700-
NEW YORK CITY METRO AREA


CITY           SKY/WX    TMP DP  RH WIND       PRES   REMARKS
CENTRAL PARK   CLEAR     44  29  55 VRB7      30.15R
LAGUARDIA APRT CLEAR     44  29  55 W12       30.13R
KENNEDY INTL   PTCLDY    42  31  64 W10       30.15R
NEWARK/LIBERTY CLEAR     40  30  67 SW8       30.14R WCI  34
BRNX BOT. GARD   N/A    N/A N/A N/A W12       30.13R
TETERBORO      CLEAR     41  29  62 SW8       30.13R
$$

NYZ177-179-078>081-260700-
LONG ISLAND NEW YORK

CITY           SKY/WX    TMP DP  RH WIND       PRES   REMARKS
FARMINGDALE    CLEAR     44  28  53 W12       30.12R
ISLIP          CLEAR     40  29  64 W7        30.10R
SHIRLEY        CLEAR     41  30  65 W8        30.11R
WESTHAMPTON    CLEAR     38  28  67 W8        30.11R WCI  32
MONTAUK POINT    N/A     46  34  62 W12       30.07R
$$

NYZ052-065-067-260700-
HUDSON VALLEY

CITY           SKY/WX    TMP DP  RH WIND       PRES   REMARKS
WHITE PLAINS   CLEAR     42  28  57 W7        30.09R
NEWBURGH       MOCLDY    41  30  65 NW12      30.10R
MONTGOMERY     CLEAR     42  27  55 W5        30.09R
POUGHKEEPSIE   CLEAR     35  27  72 NW3       30.09R
ALBANY         CLOUDY    42  28  57 NW14      30.10R
$$

NJZ001-105-106-008-010-013-015-019>022-104-260700-
NEW JERSEY

CITY           SKY/WX    TMP DP  RH WIND       PRES   REMARKS
NEWARK/LIBERTY CLEAR     40  30  67 SW8       30.14R WCI  34
TETERBORO      CLEAR     41  29  62 SW8       30.13R
CALDWELL       CLEAR     40  28  62 SW5       30.13S
MORRISTOWN     CLEAR     37  28  70 CALM      30.14S
SOMERVILLE     CLEAR     40  28  62 CALM      30.13S
SUSSEX         CLEAR     38  27  64 CALM      30.11S
ANDOVER        NOT AVBL
TRENTON        CLEAR     39  28  64 W6        30.16F WCI  35
MILLVILLE      CLEAR     33  30  88 W6        30.19F WCI  28
ATLANTIC CITY  CLEAR     38  31  76 W7        30.19F WCI  33
WRIGHTSTOWN    CLEAR     39  29  67 W5        30.15F
TOMS RIVER     CLEAR     36  30  80 CALM      30.16F
BELMAR         CLEAR     41  27  56 W8        30.15F
$$

PAZ047>061-062-071-260700-
EASTERN PENNSYLVANIA

CITY           SKY/WX    TMP DP  RH WIND       PRES   REMARKS
PHILADELPHIA   CLEAR     38  30  73 SW8       30.19F WCI  32
ALLENTOWN      CLEAR     35  26  69 SW8       30.15F WCI  29
SCRANTON       PTCLDY    37  28  70 SW7       30.12F WCI  32
$$

CTZ002-004>006-009-010-012-RIZ004-006-007-MAZ004-011-015-260700-
SOUTHERN NEW ENGLAND
 IN CT

CITY           SKY/WX    TMP DP  RH WIND       PRES   REMARKS
BRADLEY INTL   PTCLDY    40  28  62 NW6       30.05R
HARTFORD       FAIR      43  29  57 NW12G24   30.06R
DANBURY        CLEAR     41  26  55 W8        30.09R
WTRBRY/OXFORD  CLEAR     37  25  60 CALM      30.07R
BRIDGEPORT     CLEAR     44  33  65 W8        30.10R
MERIDEN          N/A     31  28  89 CALM      30.08R
NEW HAVEN      CLEAR     46  32  58 W7        30.08R
CHESTER        FAIR      39  30  70 W5        30.07R
GROTON         CLEAR     41  30  65 W8        30.06R
WILLIMANTIC    CLEAR     43  29  57 MISG      30.05R

 IN RI

CITY           SKY/WX    TMP DP  RH WIND       PRES   REMARKS
PROVIDENCE     CLEAR     39  29  67 W7        30.03R WCI  34
BLOCK ISLAND   CLEAR     45  34  65 W12G21    30.04S
WESTERLY       CLEAR     43  30  60 W6        30.05R

 IN MA

CITY           SKY/WX    TMP DP  RH WIND       PRES   REMARKS
BOSTON         CLEAR     43  29  57 W12       29.99R
WORCESTER      CLEAR     38  27  64 W15G24    29.97R WCI  29
WESTFIELD      CLOUDY    43  27  53 NW10G17   30.04R
PROVINCETOWN   CLEAR     45  34  65 W17       29.99R
NANTUCKET      CLEAR     45  34  65 W14       30.01R
$$

ANZ330-335-338-340-345-350-353-355-260700-
COASTAL MARINE OBSERVATIONS


STATION/POSITION TIME  SKY/WX   TEMP    WIND        PRES    VSBY  WAVE
                                AIR SEA DIR/SP/G                  HT/PER
                 (UTC)          (F)     (DEG/KT/KT) (MB)    (MI)  (FT/S)
NY HARB ENTRANCE 0600            45 46  270/ 16/ 19 1021.2          3/ 3
4S FIRE IS       0600               47                N/A           3/ 8
20S FIRE ISLAND  0500            47 49              1019.9          4/ 5
23SW MTP         0600                                 N/A           5/ 6
HUDSON CANYON    0600            48 55  290/ 21/ 27 1019.9
EXECUTION ROCKS  0600            44 42  280/ 12/ 16   N/A
WESTERN LI SOUND 0600            45     250/ 12/ 16   N/A           1/ 3
CENTRAL LI SOUND 0500            45 44  270/ 14/ 17   N/A           2/ 5
EASTERN LI SOUND NOT AVBL
ROBBINS REEF     0600            43                 1019.4
$$


>>>>>>>>>>>>>>>>>>>>>>>>>>>> KEY <<<<<<<<<<<<<<<<<<<<<<<<<<<
>                                                          <
>     SKY/WX - SKY CONDITION/PRESENT WEATHER               <
>     TMP    - TEMPERATURE IN FAHRENHEIT                   <
>     DP     - DEWPOINT IN FAHRENHEIT                      <
>     RH     - RELATIVE HUMIDITY IN PERCENT                <
>     WIND   - DIRECTION AND SPEED IN MPH                  <
>     PRES   - MEAN SEA LEVEL PRESSURE IN INCHES OF HG     <
>     WCI    - WIND CHILL INDEX                            <
>     VSB    - VISIBILITY IN MILES                         <
>     HX     - HEAT INDEX                                  <
>     TC     - TEMPERATURE IN CELSIUS                      <
>     VRB    - VARIABLE WIND DIRECTION                     <
>                                                          <
>>>>>>>>>>>>>>>>>>>>>>>>>>>> KEY <<<<<<<<<<<<<<<<<<<<<<<<<<<




USA.gov is the U.S. government's official web portal to all federal, state and local government web resources and services.